Tracking 19636 objects as of 24-May-2019
HD Live streaming from Space Station
objects crossing your sky now

ONEWEB-0006

Track ONEWEB-0006 now!
10-day predictions


NORAD ID: 44061
Int'l Code: 2019-010E
Perigee: 1,069.1 km
Apogee: 1,095.0 km
Inclination: 88.2 °
Period: 106.7 minutes
Semi major axis: 7453 km
RCS: Unknown
Launch date: February 27, 2019
Source: United Kingdom (UK)
Launch site: FRENCH GUIANA (FRGUI)
aabbcc
Your satellite tracking list
Your tracking list is empty




NASA's NSSDC Master Catalog

Two Line Element Set (TLE):
1 44061U 19010E   19143.92127240  .00000047  00000-0  54051-4 0  9991
2 44061  88.2144  51.6403 0017345   7.9718 352.1704 13.49282187 11600
Source of the keplerian elements: AFSPC